When you browse on this site, cookies collect data to enhance your experience and personalize the content and advertising you see.
Visit our Privacy Policy to learn more. By continuing to use the site, you agree to this use of cookies and data.
  • în România
  • Lista ţărilor
  • Pe 7 zile
  • Temperatura apei
  • Hartă satelitară
  • Meteo pe hartă
  • Widget-uri
  • user-avatar
    Intrare

    Meteo pe oră la Río Gallegos

    Astăzi, 18 Ianuarie, Vineri

    Timp Temperatura Precipitaţii Vânt Presiune Umiditate
    00:00 +11°C° 0 mm 9 m/s 761 mmHg 62%
    01:00 +11°C° 0 mm 8 m/s 761 mmHg 63%
    02:00 +11°C° 0 mm 7 m/s 761 mmHg 66%
    03:00 +10°C° 0 mm 6 m/s 760 mmHg 68%
    04:00 +10°C° 0 mm 6 m/s 760 mmHg 70%
    05:00 +11°C° 0 mm 6 m/s 760 mmHg 65%
    06:00 +13°C° 0 mm 6 m/s 760 mmHg 60%
    07:00 +14°C° 0 mm 7 m/s 760 mmHg 56%
    08:00 +16°C° 0 mm 6 m/s 759 mmHg 50%
    09:00 +19°C° 0 mm 6 m/s 759 mmHg 45%
    10:00 +20°C° 0 mm 6 m/s 759 mmHg 39%
    11:00 +21°C° 0 mm 6 m/s 758 mmHg 38%
    12:00 +22°C° 0 mm 5 m/s 757 mmHg 36%
    13:00 +22°C° 0 mm 5 m/s 757 mmHg 35%
    14:00 +22°C° 0 mm 6 m/s 756 mmHg 36%
    15:00 +22°C° 0 mm 6 m/s 756 mmHg 37%
    16:00 +22°C° 0 mm 7 m/s 756 mmHg 37%
    17:00 +22°C° 0 mm 6 m/s 755 mmHg 40%
    18:00 +22°C° 0 mm 6 m/s 755 mmHg 42%
    19:00 +21°C° 0 mm 5 m/s 755 mmHg 44%
    20:00 +21°C° 0 mm 4 m/s 754 mmHg 47%
    21:00 +20°C° 0 mm 4 m/s 754 mmHg 50%
    22:00 +19°C° 0 mm 3 m/s 753 mmHg 53%
    23:00 +19°C° 0.4 mm 3 m/s 753 mmHg 57%

    Mâine, 19 Ianuarie, Sâmbătă

    Timp Temperatura Precipitaţii Vânt Presiune Umiditate
    00:00 +18°C° 0.4 mm 4 m/s 752 mmHg 62%
    01:00 +17°C° 0.4 mm 5 m/s 751 mmHg 67%
    02:00 +18°C° 0 mm 4 m/s 751 mmHg 65%
    03:00 +18°C° 0 mm 4 m/s 750 mmHg 63%
    04:00 +18°C° 0 mm 3 m/s 749 mmHg 62%
    05:00 +18°C° 0 mm 3 m/s 749 mmHg 61%
    06:00 +18°C° 0 mm 3 m/s 749 mmHg 60%
    07:00 +18°C° 0 mm 3 m/s 748 mmHg 59%
    08:00 +19°C° 0.4 mm 4 m/s 748 mmHg 56%
    09:00 +19°C° 0.4 mm 5 m/s 748 mmHg 53%
    10:00 +19°C° 0.4 mm 6 m/s 747 mmHg 51%
    11:00 +20°C° 0 mm 7 m/s 747 mmHg 49%
    12:00 +21°C° 0 mm 8 m/s 747 mmHg 47%
    13:00 +21°C° 0 mm 9 m/s 747 mmHg 45%
    14:00 +19°C° 0.1 mm 10 m/s 747 mmHg 48%
    15:00 +18°C° 0.1 mm 10 m/s 747 mmHg 51%
    16:00 +17°C° 0.1 mm 10 m/s 747 mmHg 54%
    17:00 +17°C° 0 mm 10 m/s 748 mmHg 54%
    18:00 +16°C° 0 mm 9 m/s 748 mmHg 53%
    19:00 +16°C° 0 mm 9 m/s 749 mmHg 53%
    20:00 +15°C° 0 mm 8 m/s 749 mmHg 56%
    21:00 +14°C° 0 mm 7 m/s 749 mmHg 58%
    22:00 +13°C° 0 mm 6 m/s 750 mmHg 61%
    23:00 +12°C° 0.4 mm 5 m/s 750 mmHg 63%

    Poimâine, 20 Ianuarie, Duminică

    Timp Temperatura Precipitaţii Vânt Presiune Umiditate
    00:00 +12°C° 0.4 mm 5 m/s 750 mmHg 66%
    01:00 +11°C° 0.4 mm 4 m/s 750 mmHg 68%
    02:00 +10°C° 1 mm 4 m/s 749 mmHg 70%
    03:00 +10°C° 1 mm 3 m/s 749 mmHg 72%
    04:00 +9°C° 1 mm 3 m/s 749 mmHg 74%
    05:00 +9°C° 1.7 mm 2 m/s 749 mmHg 77%
    06:00 +9°C° 1.7 mm 1 m/s 749 mmHg 80%
    07:00 +8°C° 1.7 mm 0 m/s 749 mmHg 83%
    08:00 +7°C° 1.2 mm 0 m/s 749 mmHg 83%
    09:00 +8°C° 1.2 mm 1 m/s 749 mmHg 83%
    10:00 +8°C° 1.2 mm 1 m/s 749 mmHg 83%
    11:00 +8°C° 0.9 mm 1 m/s 749 mmHg 81%
    12:00 +9°C° 0.9 mm 1 m/s 749 mmHg 80%
    13:00 +9°C° 0.9 mm 1 m/s 749 mmHg 78%
    14:00 +8°C° 0.3 mm 2 m/s 749 mmHg 74%
    15:00 +9°C° 0.3 mm 3 m/s 750 mmHg 70%
    16:00 +10°C° 0.3 mm 4 m/s 750 mmHg 65%
    17:00 +10°C° 0.1 mm 4 m/s 750 mmHg 63%
    18:00 +10°C° 0.1 mm 5 m/s 751 mmHg 61%
    19:00 +10°C° 0.1 mm 6 m/s 751 mmHg 59%
    20:00 +9°C° 0 mm 6 m/s 752 mmHg 62%
    21:00 +8°C° 0 mm 6 m/s 752 mmHg 64%
    22:00 +7°C° 0 mm 6 m/s 752 mmHg 67%
    23:00 +7°C° 0 mm 5 m/s 752 mmHg 69%

    21 Ianuarie, Luni

    Timp Temperatura Precipitaţii Vânt Presiune Umiditate
    00:00 +7°C° 0 mm 4 m/s 752 mmHg 71%
    01:00 +7°C° 0 mm 3 m/s 752 mmHg 72%
    02:00 +6°C° 0 mm 4 m/s 751 mmHg 72%
    03:00 +6°C° 0 mm 4 m/s 751 mmHg 72%
    04:00 +6°C° 0 mm 5 m/s 751 mmHg 72%
    05:00 +6°C° 0 mm 7 m/s 750 mmHg 68%
    06:00 +8°C° 0 mm 9 m/s 749 mmHg 64%
    07:00 +9°C° 0 mm 11 m/s 749 mmHg 60%
    08:00 +11°C° 0 mm 11 m/s 747 mmHg 56%
    09:00 +12°C° 0 mm 11 m/s 746 mmHg 52%
    10:00 +13°C° 0 mm 10 m/s 745 mmHg 48%
    11:00 +14°C° 0 mm 10 m/s 744 mmHg 43%
    12:00 +17°C° 0 mm 9 m/s 743 mmHg 38%
    13:00 +18°C° 0 mm 8 m/s 742 mmHg 32%
    14:00 +18°C° 0 mm 9 m/s 742 mmHg 36%
    15:00 +17°C° 0 mm 9 m/s 741 mmHg 39%
    16:00 +17°C° 0 mm 9 m/s 741 mmHg 42%
    17:00 +16°C° 0 mm 8 m/s 741 mmHg 41%
    18:00 +15°C° 0 mm 8 m/s 741 mmHg 40%
    19:00 +14°C° 0 mm 7 m/s 741 mmHg 39%
    20:00 +12°C° 0 mm 7 m/s 741 mmHg 43%
    21:00 +11°C° 0 mm 7 m/s 742 mmHg 48%
    22:00 +10°C° 0 mm 7 m/s 742 mmHg 52%
    23:00 +9°C° 0 mm 8 m/s 742 mmHg 56%

    22 Ianuarie, Marţi

    Timp Temperatura Precipitaţii Vânt Presiune Umiditate
    00:00 +7°C° 0 mm 9 m/s 743 mmHg 59%
    01:00 +6°C° 0 mm 10 m/s 743 mmHg 62%
    02:00 +6°C° 0 mm 10 m/s 743 mmHg 62%
    03:00 +6°C° 0 mm 11 m/s 743 mmHg 62%
    04:00 +4°C° 0 mm 11 m/s 744 mmHg 62%
    05:00 +5°C° 0 mm 12 m/s 744 mmHg 58%
    06:00 +5°C° 0 mm 14 m/s 745 mmHg 54%
    07:00 +5°C° 0 mm 15 m/s 745 mmHg 49%
    08:00 +6°C° 0 mm 15 m/s 746 mmHg 45%
    09:00 +8°C° 0 mm 15 m/s 746 mmHg 40%
    10:00 +9°C° 0 mm 16 m/s 747 mmHg 36%
    11:00 +9°C° 0 mm 15 m/s 747 mmHg 37%
    12:00 +9°C° 0 mm 15 m/s 747 mmHg 38%
    13:00 +9°C° 0 mm 15 m/s 748 mmHg 40%
    14:00 +9°C° 0 mm 15 m/s 748 mmHg 40%
    15:00 +9°C° 0 mm 15 m/s 749 mmHg 41%
    16:00 +8°C° 0 mm 14 m/s 750 mmHg 42%
    17:00 +8°C° 0 mm 14 m/s 750 mmHg 43%
    18:00 +8°C° 0 mm 13 m/s 751 mmHg 45%
    19:00 +7°C° 0 mm 12 m/s 751 mmHg 47%
    20:00 +7°C° 0 mm 9 m/s 751 mmHg 50%
    21:00 +6°C° 0 mm 7 m/s 752 mmHg 53%
    22:00 +7°C° 0 mm 4 m/s 752 mmHg 56%
    23:00 +7°C° 0 mm 5 m/s 751 mmHg 55%

    23 Ianuarie, Miercuri

    Timp Temperatura Precipitaţii Vânt Presiune Umiditate
    00:00 +7°C° 0 mm 5 m/s 751 mmHg 55%
    01:00 +7°C° 0 mm 5 m/s 751 mmHg 54%
    02:00 +6°C° 0 mm 7 m/s 750 mmHg 55%
    03:00 +7°C° 0 mm 9 m/s 749 mmHg 55%
    04:00 +7°C° 0 mm 11 m/s 748 mmHg 56%
    05:00 +8°C° 0 mm 11 m/s 747 mmHg 53%
    06:00 +9°C° 0 mm 10 m/s 746 mmHg 51%
    07:00 +11°C° 0 mm 10 m/s 745 mmHg 48%
    08:00 +13°C° 0 mm 10 m/s 744 mmHg 44%
    09:00 +14°C° 0 mm 10 m/s 743 mmHg 40%
    10:00 +17°C° 0 mm 9 m/s 741 mmHg 36%
    11:00 +18°C° 0 mm 10 m/s 740 mmHg 34%
    12:00 +21°C° 0 mm 10 m/s 738 mmHg 32%
    13:00 +22°C° 0 mm 11 m/s 737 mmHg 30%
    14:00 +22°C° 0.1 mm 13 m/s 736 mmHg 33%
    15:00 +20°C° 0.1 mm 14 m/s 735 mmHg 36%
    16:00 +20°C° 0.1 mm 16 m/s 734 mmHg 38%
    17:00 +17°C° 0.2 mm 15 m/s 734 mmHg 38%
    18:00 +14°C° 0.2 mm 13 m/s 735 mmHg 38%
    19:00 +10°C° 0.2 mm 12 m/s 736 mmHg 38%
    20:00 +9°C° 0 mm 13 m/s 736 mmHg 40%
    21:00 +8°C° 0 mm 13 m/s 736 mmHg 42%
    22:00 +6°C° 0 mm 14 m/s 736 mmHg 44%
    23:00 +6°C° 0 mm 14 m/s 736 mmHg 46%
    Arată mai mult